Flag for United Kingdom Weather past 2 weeks in Edinburgh, Scotland, United Kingdom

Now
41 °F

Sleet. Partly sunny.


Feels Like: 32 °F
Forecast: 37 / 44 °F
Wind: 20 mph from West

Location: Edinburgh Airport

Current Time: Mar 1, 2015 at 3:45:26 PM

Latest Report: Mar 1, 2015 at 3:20 PM


Visibility: N/A

Pressure: 29.12 "Hg

Humidity: 81%

Dew point: 36 °F

Location of EdinburghLocation

Historic Weather in Edinburgh — Graph

°F

Edinburgh temperature yesterday

Maximum temperature yesterday: 48 °F (at 12:20 PM)
Minimum temperature yesterday: 45 °F (at 12:20 AM)
Average temperature yesterday: 46 °F

Past Weeks' High & Low Weather Summary

 TemperatureHumidityPressure
High54 °F (Feb 18, 12:20 PM)100% (Feb 14, 2:20 PM)30.42 "Hg (Feb 14, 2:20 PM)
Low27 °F (Feb 22, 2:20 AM)53% (Feb 26, 12:50 PM)28.65 "Hg (Feb 23, 4:20 PM)
Average41 °F83%29.61 "Hg
* Reported Feb 14 2:20 PM — Mar 1 2:20 PM, Edinburgh, Weather by CustomWeather, © 2015

Note: Actual official high and low records may vary slightly from our data, if they occured in-between our weather recording intervals... More about our weather records

Advertising

Edinburgh weather history for previous 24 hours

 ConditionsComfort  
Time TempWeatherWind HumidityBarometerVisibility
2:20 PM
Sun, Mar 1
41 °FPassing clouds.20 mph81%29.12 "HgN/A
1:50 PM41 °FSprinkles. Scattered clouds.23 mph81%29.12 "HgN/A
1:20 PM41 °FPassing clouds.21 mph81%29.12 "HgN/A
12:50 PM41 °FSprinkles. Scattered clouds.20 mph81%29.12 "HgN/A
12:20 PM39 °FScattered clouds.20 mph87%29.12 "HgN/A
11:50 AM41 °FSprinkles. Partly sunny.23 mph87%29.15 "Hg5 mi
11:20 AM43 °FScattered clouds.20 mph81%29.12 "HgN/A
10:50 AM41 °FScattered clouds.18 mph87%29.12 "HgN/A
10:20 AM41 °FScattered clouds.21 mph81%29.12 "HgN/A
9:50 AM41 °FLight rain. Partly sunny.18 mph81%29.12 "HgN/A
9:20 AM41 °FScattered clouds.22 mph81%29.09 "HgN/A
8:50 AM41 °FSprinkles. Scattered clouds.22 mph87%29.09 "HgN/A
8:20 AM41 °FSprinkles. Scattered clouds.21 mph87%29.06 "HgN/A
7:50 AM39 °FScattered clouds.17 mph87%29.06 "HgN/A
7:20 AM39 °FScattered clouds.20 mph87%29.03 "HgN/A
6:50 AM39 °FPassing clouds.23 mph87%29.03 "HgN/A
6:20 AM39 °FPassing clouds.17 mph87%29.03 "HgN/A
5:50 AM41 °FPassing clouds.18 mph81%29.00 "HgN/A
5:20 AM39 °FClear.18 mph87%28.97 "Hg10 mi
4:50 AM39 °FPartly cloudy.22 mph87%28.97 "HgN/A
4:20 AM41 °FLight rain. Partly cloudy.21 mph87%28.94 "HgN/A
3:50 AM43 °FPassing clouds.22 mph76%28.94 "HgN/A
3:20 AM43 °FLight rain. Passing clouds.22 mph81%28.94 "HgN/A
2:50 AM43 °FLight rain. Partly cloudy.22 mph81%28.91 "HgN/A
2:20 AM41 °FPassing clouds.23 mph81%28.91 "HgN/A
1:50 AM43 °FLight rain. Passing clouds.28 mph81%28.88 "HgN/A
1:20 AM45 °FLight rain. Passing clouds.29 mph81%28.85 "HgN/A
12:50 AM45 °FLight rain. Passing clouds.30 mph81%28.85 "HgN/A
12:20 AM45 °FLight rain. Passing clouds.31 mph87%28.82 "HgN/A
11:50 PM
Sat, Feb 28
45 °FLight rain. Overcast.36 mph87%28.80 "HgN/A
11:20 PM45 °FMostly cloudy.36 mph87%28.77 "HgN/A
10:50 PM45 °FRain. Mostly cloudy.36 mph87%28.77 "HgN/A
10:20 PM46 °FLight rain. Mostly cloudy.31 mph82%28.77 "HgN/A
9:50 PM48 °FPassing clouds.38 mph82%28.80 "HgN/A
9:20 PM48 °FPassing clouds.23 mph87%28.80 "HgN/A
8:50 PM48 °FLight rain. Partly cloudy.22 mph82%28.82 "HgN/A
8:20 PM48 °FPassing clouds.25 mph82%28.85 "HgN/A
7:50 PM46 °FPassing clouds.28 mph82%28.88 "HgN/A
7:20 PM46 °FLight rain. Passing clouds.25 mph82%28.94 "HgN/A
6:50 PM46 °FLight rain. Passing clouds.25 mph76%28.97 "HgN/A
6:20 PM45 °FPassing clouds.17 mph87%29.03 "HgN/A
5:50 PM45 °FLight rain. Passing clouds.13 mph81%29.09 "HgN/A
5:20 PM45 °FLight rain. Partly sunny.10 mph81%29.12 "Hg5 mi
4:50 PM45 °FLight rain. Broken clouds.14 mph81%29.15 "Hg6 mi
4:20 PM45 °FLight rain. Partly sunny.16 mph81%29.21 "Hg5 mi
3:50 PM46 °FScattered clouds.14 mph76%29.21 "HgN/A
3:20 PM46 °FScattered clouds.15 mph76%29.27 "HgN/A
Weather by CustomWeather, © 2015

See weather overviewHow to use our weather pages